TimeCDT,TemperatureF,Dew PointF,Humidity,Sea Level PressureIn,VisibilityMPH,Wind Direction,Wind SpeedMPH,Gust SpeedMPH,PrecipitationIn,Events,Conditions,WindDirDegrees,DateUTC
12:15 AM,34.7,30.9,86,30.16,10.0,NNE,5.8,-,N/A,,Clear,30,2012-11-03 05:15:00
12:35 AM,33.4,29.7,86,30.16,10.0,NE,5.8,-,N/A,,Clear,50,2012-11-03 05:35:00
12:55 AM,33.8,30.2,87,30.16,10.0,NE,5.8,-,N/A,,Clear,40,2012-11-03 05:55:00
1:35 AM,32.5,29.5,88,30.16,10.0,NE,3.5,-,N/A,,Clear,50,2012-11-03 06:35:00
1:55 AM,32.0,30.2,93,30.16,10.0,NE,6.9,-,N/A,,Clear,50,2012-11-03 06:55:00
2:15 AM,33.6,30.6,89,30.16,10.0,NE,6.9,-,N/A,,Mostly Cloudy,40,2012-11-03 07:15:00
2:35 AM,34.2,31.1,89,30.15,10.0,ENE,3.5,-,N/A,,Overcast,60,2012-11-03 07:35:00
2:55 AM,35.4,32.0,87,30.15,7.0,NE,5.8,-,N/A,,Overcast,50,2012-11-03 07:55:00
3:35 AM,37.2,32.9,84,30.13,5.0,NE,8.1,-,N/A,,Overcast,50,2012-11-03 08:35:00
3:55 AM,37.6,32.2,81,30.12,5.0,NE,9.2,-,N/A,,Haze,50,2012-11-03 08:55:00
4:15 AM,37.6,32.0,80,30.13,5.0,NE,8.1,-,N/A,,Haze,50,2012-11-03 09:15:00
4:55 AM,37.6,32.5,82,30.15,10.0,Calm,Calm,-,N/A,,Overcast,0,2012-11-03 09:55:00
5:15 AM,37.6,32.9,83,30.15,10.0,Calm,Calm,-,N/A,,Overcast,0,2012-11-03 10:15:00
5:35 AM,37.6,32.9,83,30.16,10.0,NE,3.5,-,N/A,,Overcast,40,2012-11-03 10:35:00
5:55 AM,37.6,32.7,83,30.15,10.0,NNE,4.6,-,N/A,,Overcast,30,2012-11-03 10:55:00
6:15 AM,37.6,32.2,81,30.16,4.0,NE,4.6,-,N/A,,Haze,40,2012-11-03 11:15:00
6:35 AM,37.6,32.9,83,30.16,10.0,NNE,4.6,-,N/A,,Overcast,30,2012-11-03 11:35:00
6:55 AM,37.6,32.9,83,30.16,10.0,NE,3.5,-,N/A,,Overcast,50,2012-11-03 11:55:00
7:15 AM,37.6,32.9,83,30.16,7.0,NE,4.6,-,N/A,,Overcast,40,2012-11-03 12:15:00
7:35 AM,37.6,32.9,83,30.16,10.0,NE,4.6,-,N/A,,Overcast,40,2012-11-03 12:35:00
7:55 AM,37.6,32.9,83,30.17,10.0,NE,5.8,-,N/A,,Overcast,40,2012-11-03 12:55:00
8:15 AM,37.6,33.1,84,30.18,10.0,NNE,6.9,-,N/A,,Scattered Clouds,30,2012-11-03 13:15:00
8:35 AM,37.9,33.3,83,30.19,10.0,NNE,6.9,-,N/A,,Scattered Clouds,30,2012-11-03 13:35:00
8:55 AM,38.3,33.8,84,30.20,10.0,NNE,6.9,-,N/A,,Mostly Cloudy,20,2012-11-03 13:55:00
9:15 AM,39.2,34.0,82,30.20,10.0,NE,8.1,-,N/A,,Overcast,40,2012-11-03 14:15:00
9:35 AM,40.1,34.7,81,30.20,10.0,NE,8.1,-,N/A,,Overcast,40,2012-11-03 14:35:00
9:55 AM,41.4,34.7,77,30.21,10.0,NNE,10.4,-,N/A,,Overcast,30,2012-11-03 14:55:00
10:35 AM,42.8,34.2,72,30.21,10.0,NE,12.7,-,N/A,,Overcast,40,2012-11-03 15:35:00
10:55 AM,43.2,33.8,70,30.21,10.0,NE,10.4,-,N/A,,Overcast,50,2012-11-03 15:55:00
11:15 AM,43.3,33.6,69,30.20,10.0,NE,11.5,-,N/A,,Overcast,40,2012-11-03 16:15:00
11:35 AM,43.7,33.8,68,30.21,10.0,ENE,11.5,-,N/A,,Mostly Cloudy,60,2012-11-03 16:35:00
11:55 AM,44.2,33.8,67,30.20,10.0,ENE,10.4,-,N/A,,Mostly Cloudy,70,2012-11-03 16:55:00
12:15 PM,44.8,34.0,66,30.19,10.0,NE,9.2,-,N/A,,Scattered Clouds,50,2012-11-03 17:15:00
12:35 PM,47.3,34.7,62,30.19,10.0,NE,9.2,16.1,N/A,,Scattered Clouds,50,2012-11-03 17:35:00
12:55 PM,46.0,32.7,60,30.18,10.0,ENE,9.2,16.1,N/A,,Mostly Cloudy,70,2012-11-03 17:55:00
1:15 PM,46.2,32.9,60,30.18,10.0,NE,10.4,-,N/A,,Mostly Cloudy,50,2012-11-03 18:15:00
1:55 PM,47.5,33.3,58,30.17,10.0,East,9.2,-,N/A,,Scattered Clouds,80,2012-11-03 18:55:00
2:15 PM,46.6,32.5,58,30.17,10.0,NE,9.2,-,N/A,,Mostly Cloudy,40,2012-11-03 19:15:00
2:35 PM,45.0,32.9,63,30.16,10.0,NE,9.2,-,N/A,,Light Drizzle,40,2012-11-03 19:35:00
2:55 PM,45.1,33.6,64,30.17,10.0,NNE,10.4,-,N/A,,Scattered Clouds,20,2012-11-03 19:55:00
3:15 PM,44.8,33.3,64,30.17,10.0,North,9.2,-,N/A,,Scattered Clouds,10,2012-11-03 20:15:00
3:35 PM,44.6,33.3,64,30.18,10.0,North,6.9,-,N/A,,Mostly Cloudy,10,2012-11-03 20:35:00
3:55 PM,45.1,33.3,63,30.18,10.0,NNE,6.9,-,N/A,,Scattered Clouds,30,2012-11-03 20:55:00
4:15 PM,45.5,33.1,62,30.18,10.0,NE,6.9,-,N/A,,Scattered Clouds,40,2012-11-03 21:15:00
4:35 PM,45.5,32.0,59,30.18,10.0,NNE,5.8,-,N/A,,Scattered Clouds,20,2012-11-03 21:35:00
4:55 PM,44.1,32.5,64,30.18,10.0,NE,6.9,-,N/A,,Mostly Cloudy,50,2012-11-03 21:55:00
5:15 PM,43.9,32.5,64,30.18,10.0,NNE,6.9,-,N/A,,Overcast,30,2012-11-03 22:15:00
5:35 PM,42.8,32.4,67,30.18,10.0,NNE,5.8,-,N/A,,Overcast,30,2012-11-03 22:35:00
5:55 PM,42.1,32.9,70,30.18,10.0,NNE,4.6,-,N/A,,Overcast,30,2012-11-03 22:55:00
6:15 PM,41.2,32.9,72,30.19,10.0,NE,4.6,-,N/A,,Mostly Cloudy,50,2012-11-03 23:15:00
6:35 PM,41.0,33.3,74,30.20,10.0,NNE,3.5,-,N/A,,Mostly Cloudy,30,2012-11-03 23:35:00
6:55 PM,40.5,33.3,75,30.19,10.0,NE,4.6,-,N/A,,Overcast,40,2012-11-03 23:55:00
7:15 PM,40.1,33.3,77,30.20,10.0,NE,3.5,-,N/A,,Overcast,50,2012-11-04 00:15:00
7:35 PM,40.3,33.4,77,30.20,10.0,Calm,Calm,-,N/A,,Overcast,0,2012-11-04 00:35:00
7:55 PM,39.2,32.9,78,30.20,10.0,NE,4.6,-,N/A,,Overcast,40,2012-11-04 00:55:00
8:15 PM,38.5,32.9,80,30.20,10.0,Calm,Calm,-,N/A,,Mostly Cloudy,0,2012-11-04 01:15:00
8:35 PM,37.9,32.5,81,30.20,10.0,North,3.5,-,N/A,,Clear,10,2012-11-04 01:35:00
8:55 PM,36.7,32.0,83,30.20,10.0,North,4.6,-,N/A,,Clear,360,2012-11-04 01:55:00
9:15 PM,37.6,32.5,82,30.21,10.0,North,3.5,-,N/A,,Clear,10,2012-11-04 02:15:00
9:35 PM,36.0,32.0,86,30.20,10.0,North,4.6,-,N/A,,Scattered Clouds,350,2012-11-04 02:35:00
9:55 PM,35.1,31.5,87,30.21,10.0,North,4.6,-,N/A,,Clear,10,2012-11-04 02:55:00
10:15 PM,35.8,32.0,86,30.21,10.0,NNE,5.8,-,N/A,,Clear,20,2012-11-04 03:15:00
10:35 PM,34.2,30.7,87,30.21,10.0,North,5.8,-,N/A,,Clear,360,2012-11-04 03:35:00
10:55 PM,35.1,31.5,87,30.21,10.0,North,3.5,-,N/A,,Clear,10,2012-11-04 03:55:00
11:15 PM,33.1,29.8,88,30.21,10.0,Calm,Calm,-,N/A,,Clear,0,2012-11-04 04:15:00
11:55 PM,33.8,31.1,90,30.21,10.0,North,3.5,-,N/A,,Clear,10,2012-11-04 04:55:00